Location: Bats
(43.6587°N, 0.4584°W)
Time: 07:16:55
(UTC+00:00)

Cosmos 1943 - Pass Details

Date: 12 January 2026
Orbit: 830 x 850 km, 71.0° (Epoch: 10 February)

Event Time Altitude Azimuth Distance (km) Brightness Sun altitude
Rises 17:26:55 0° 189° (S) 3,363 6.8 -7.3°
Reaches altitude 10° 17:29:22 10° 185° (S) 2,436 6.0 -7.7°
Maximum altitude 17:34:48 54° 109° (ESE) 1,012 3.4 -8.6°
Drops below altitude 10° 17:40:17 10° 33° (NNE) 2,465 5.1 -9.5°
Enters shadow 17:41:31 - 31° (NNE) 2,928 5.5 -9.8°
